Regional Weather Roundup
Issued by NWS

Home | Current Version | Previous Version | Text Only | Print | Product List | Glossary Off
Versions: 1 2 3 4 5 6 7 8 9 10 11 12 13 14 15 16 17 18 19 20 21 22 23 24 25 26 27

000
ASUS45 KBOI 161610
RWRID
WEATHER ROUNDUP FOR IDAHO
NATIONAL WEATHER SERVICE BOISE ID
1000 AM MDT WED APR 16 2014

NOTE: "FAIR" INDICATES FEW OR NO CLOUDS BELOW 12000 FEET
WITH NO SIGNIFICANT WEATHER AND/OR OBSTRUCTIONS TO VISIBILITY

IDZ012-014-161700-
SOUTHWEST IDAHO


CITY           SKY/WX    TMP DP  RH WIND       PRES   REMARKS
BOISE          PTSUNNY   46  20  35 VRB3      30.07S
CALDWELL       MOSUNNY   45  23  42 E5        30.10S
MOUNTAIN HOME  PTSUNNY   48  20  33 NW14      30.06R
$$

IDZ016-017-161700-
SOUTHCENTRAL IDAHO


CITY           SKY/WX    TMP DP  RH WIND       PRES   REMARKS
BURLEY         MOSUNNY   45  18  34 SW6       30.04S
JEROME         MOSUNNY   43  19  38 SW9       30.05S
TWIN FALLS     MOSUNNY   48  17  29 W17       30.05S
$$

IDZ019>023-161700-
SOUTHEAST IDAHO


CITY           SKY/WX    TMP DP  RH WIND       PRES   REMARKS
IDAHO FALLS    MOSUNNY   40  18  41 VRB5      30.04S
POCATELLO      SUNNY     43  17  35 NW5       30.05S
REXBURG        MOSUNNY   38  18  44 VRB3      30.03F
$$

IDZ006-010-011-018-031-032-161700-
CENTRAL IDAHO MOUNTAINS


CITY           SKY/WX    TMP DP  RH WIND       PRES   REMARKS
MCCALL         CLOUDY    35  16  45 CALM      30.03S
HAILEY         PTSUNNY   39  14  35 CALM      30.05S
STANLEY          N/A     25  14  63 N5        30.04S WCI  19
SALMON         MOSUNNY   39  19  45 NW5       30.04S
CHALLIS        MOSUNNY   38  14  37 E3        30.03F
$$

IDZ002-004-006-007-026-161700-
NORTHERN IDAHO


CITY           SKY/WX    TMP DP  RH WIND       PRES   REMARKS
LEWISTON       CLOUDY    48  29  47 N8        30.07S
LOWELL           N/A     42  36  79 N3        30.12F
COEUR D`ALENE  CLOUDY    43  30  61 S7        30.04R
MULLAN PASS    PTSUNNY   28  25  86 SW5       29.95S WCI  23
$$



USA.gov is the U.S. government's official web portal to all federal, state and local government web resources and services.